﻿<?xml version="1.0" encoding="UTF-8"?>
<gpx xmlns="http://www.topografix.com/GPX/1/1" creator="ape@map" version="1.1" xmlns:xsi="http://www.w3.org/2001/XMLSchema-instance" xmlns:dklgpx="http://na.na.na/GPX/1/1" xsi:schemaLocation="http://www.topografix.com/GPX/1/1 http://www.topografix.com/GPX/1/1/gpx.xsd">
<metadata>
   <name>ape@map my Phone my Guide</name>
</metadata>
<trk>
   <name>2017-06-30_13_30-05#11km91#278m#0h0</name>
   <trkseg>
      <trkpt lon="9.282829" lat="47.317094">
          <ele>834</ele>
          <time>1970-03-03T22:00:00Z</time>
      </trkpt>
      <trkpt lon="9.283279" lat="47.31724">
          <ele>832</ele>
          <time>1970-03-03T22:00:00Z</time>
      </trkpt>
      <trkpt lon="9.283493" lat="47.317386">
          <ele>832</ele>
          <time>1970-03-03T22:00:00Z</time>
      </trkpt>
      <trkpt lon="9.283344" lat="47.31747">
          <ele>833</ele>
          <time>1970-03-03T22:00:00Z</time>
      </trkpt>
      <trkpt lon="9.282952" lat="47.317487">
          <ele>836</ele>
          <time>1970-03-03T22:00:00Z</time>
      </trkpt>
      <trkpt lon="9.282432" lat="47.317281">
          <ele>839</ele>
          <time>1970-03-03T22:00:00Z</time>
      </trkpt>
      <trkpt lon="9.282094" lat="47.317543">
          <ele>843</ele>
          <time>1970-03-03T22:00:00Z</time>
      </trkpt>
      <trkpt lon="9.281643" lat="47.317656">
          <ele>849</ele>
          <time>1970-03-03T22:00:00Z</time>
      </trkpt>
      <trkpt lon="9.281464" lat="47.317625">
          <ele>849</ele>
          <time>1970-03-03T22:00:00Z</time>
      </trkpt>
      <trkpt lon="9.280002" lat="47.317498">
          <ele>858</ele>
          <time>1970-03-03T22:00:00Z</time>
      </trkpt>
      <trkpt lon="9.279732" lat="47.317612">
          <ele>865</ele>
          <time>1970-03-03T22:00:00Z</time>
      </trkpt>
      <trkpt lon="9.279262" lat="47.317627">
          <ele>874</ele>
          <time>1970-03-03T22:00:00Z</time>
      </trkpt>
      <trkpt lon="9.278939" lat="47.317961">
          <ele>884</ele>
          <time>1970-03-03T22:00:00Z</time>
      </trkpt>
      <trkpt lon="9.278893" lat="47.318066">
          <ele>884</ele>
          <time>1970-03-03T22:00:00Z</time>
      </trkpt>
      <trkpt lon="9.278783" lat="47.318193">
          <ele>887</ele>
          <time>1970-03-03T22:00:00Z</time>
      </trkpt>
      <trkpt lon="9.278489" lat="47.3182">
          <ele>890</ele>
          <time>1970-03-03T22:00:00Z</time>
      </trkpt>
      <trkpt lon="9.27854" lat="47.318374">
          <ele>892</ele>
          <time>1970-03-03T22:00:00Z</time>
      </trkpt>
      <trkpt lon="9.278063" lat="47.318304">
          <ele>900</ele>
          <time>1970-03-03T22:00:00Z</time>
      </trkpt>
      <trkpt lon="9.277658" lat="47.318289">
          <ele>908</ele>
          <time>1970-03-03T22:00:00Z</time>
      </trkpt>
      <trkpt lon="9.277296" lat="47.318288">
          <ele>914</ele>
          <time>1970-03-03T22:00:00Z</time>
      </trkpt>
      <trkpt lon="9.277055" lat="47.318356">
          <ele>920</ele>
          <time>1970-03-03T22:00:00Z</time>
      </trkpt>
      <trkpt lon="9.276938" lat="47.318701">
          <ele>931</ele>
          <time>1970-03-03T22:00:00Z</time>
      </trkpt>
      <trkpt lon="9.276766" lat="47.318995">
          <ele>935</ele>
          <time>1970-03-03T22:00:00Z</time>
      </trkpt>
      <trkpt lon="9.276605" lat="47.319128">
          <ele>936</ele>
          <time>1970-03-03T22:00:00Z</time>
      </trkpt>
      <trkpt lon="9.275892" lat="47.318846">
          <ele>937.3287</ele>
          <time>1970-03-03T22:00:00Z</time>
      </trkpt>
      <trkpt lon="9.275761" lat="47.318522">
          <ele>937.352</ele>
          <time>1970-03-03T22:00:00Z</time>
      </trkpt>
      <trkpt lon="9.275745" lat="47.318119">
          <ele>1009.13654</ele>
          <time>1970-03-03T22:00:00Z</time>
      </trkpt>
      <trkpt lon="9.275682" lat="47.317814">
          <ele>1012.84064</ele>
          <time>1970-03-03T22:00:00Z</time>
      </trkpt>
      <trkpt lon="9.27546" lat="47.317696">
          <ele>1015.69324</ele>
          <time>1970-03-03T22:00:00Z</time>
      </trkpt>
      <trkpt lon="9.274882999" lat="47.317433">
          <ele>1017.6496</ele>
          <time>1970-03-03T22:00:00Z</time>
      </trkpt>
      <trkpt lon="9.274757" lat="47.317235">
          <ele>1017.6323</ele>
          <time>1970-03-03T22:00:00Z</time>
      </trkpt>
      <trkpt lon="9.27308" lat="47.316987">
          <ele>1017.4608</ele>
          <time>1970-03-03T22:00:00Z</time>
      </trkpt>
      <trkpt lon="9.271665" lat="47.316759">
          <ele>1017.19086</ele>
          <time>1970-03-03T22:00:00Z</time>
      </trkpt>
      <trkpt lon="9.270973" lat="47.316655">
          <ele>1017.14465</ele>
          <time>1970-03-03T22:00:00Z</time>
      </trkpt>
      <trkpt lon="9.27043" lat="47.316675">
          <ele>1016.88116</ele>
          <time>1970-03-03T22:00:00Z</time>
      </trkpt>
      <trkpt lon="9.269891" lat="47.316854">
          <ele>1016</ele>
          <time>1970-03-03T22:00:00Z</time>
      </trkpt>
      <trkpt lon="9.269507" lat="47.316987">
          <ele>1016</ele>
          <time>1970-03-03T22:00:00Z</time>
      </trkpt>
      <trkpt lon="9.268943" lat="47.317594">
          <ele>1016</ele>
          <time>1970-03-03T22:00:00Z</time>
      </trkpt>
      <trkpt lon="9.268632" lat="47.31843">
          <ele>1016</ele>
          <time>1970-03-03T22:00:00Z</time>
      </trkpt>
      <trkpt lon="9.267774" lat="47.318606">
          <ele>1020.6046</ele>
          <time>1970-03-03T22:00:00Z</time>
      </trkpt>
      <trkpt lon="9.267225" lat="47.318562">
          <ele>1028.69</ele>
          <time>1970-03-03T22:00:00Z</time>
      </trkpt>
      <trkpt lon="9.266315" lat="47.318862">
          <ele>1046.5037</ele>
          <time>1970-03-03T22:00:00Z</time>
      </trkpt>
      <trkpt lon="9.265406" lat="47.319329">
          <ele>1065.6985</ele>
          <time>1970-03-03T22:00:00Z</time>
      </trkpt>
      <trkpt lon="9.264852" lat="47.319627">
          <ele>1076.4368</ele>
          <time>1970-03-03T22:00:00Z</time>
      </trkpt>
      <trkpt lon="9.264607" lat="47.319841">
          <ele>1082.1897</ele>
          <time>1970-03-03T22:00:00Z</time>
      </trkpt>
      <trkpt lon="9.264386" lat="47.320179">
          <ele>1089.9808</ele>
          <time>1970-03-03T22:00:00Z</time>
      </trkpt>
      <trkpt lon="9.264615" lat="47.320458">
          <ele>1094.7888</ele>
          <time>1970-03-03T22:00:00Z</time>
      </trkpt>
      <trkpt lon="9.26471" lat="47.320871">
          <ele>1101.894</ele>
          <time>1970-03-03T22:00:00Z</time>
      </trkpt>
      <trkpt lon="9.264267" lat="47.321112">
          <ele>1110.4683</ele>
          <time>1970-03-03T22:00:00Z</time>
      </trkpt>
      <trkpt lon="9.263705999" lat="47.321155">
          <ele>1113.5397</ele>
          <time>1970-03-03T22:00:00Z</time>
      </trkpt>
      <trkpt lon="9.263097" lat="47.321273">
          <ele>1113.5397</ele>
          <time>1970-03-03T22:00:00Z</time>
      </trkpt>
      <trkpt lon="9.262527" lat="47.321519">
          <ele>1113.5397</ele>
          <time>1970-03-03T22:00:00Z</time>
      </trkpt>
      <trkpt lon="9.261761" lat="47.321919">
          <ele>1113.5397</ele>
          <time>1970-03-03T22:00:00Z</time>
      </trkpt>
      <trkpt lon="9.261453" lat="47.32208">
          <ele>1113.5397</ele>
          <time>1970-03-03T22:00:00Z</time>
      </trkpt>
      <trkpt lon="9.261184" lat="47.322412">
          <ele>1113.5397</ele>
          <time>1970-03-03T22:00:00Z</time>
      </trkpt>
      <trkpt lon="9.261184" lat="47.322948">
          <ele>1113.5397</ele>
          <time>1970-03-03T22:00:00Z</time>
      </trkpt>
      <trkpt lon="9.261049" lat="47.323281">
          <ele>1113.5397</ele>
          <time>1970-03-03T22:00:00Z</time>
      </trkpt>
      <trkpt lon="9.260252" lat="47.323478">
          <ele>1110.0569</ele>
          <time>1970-03-03T22:00:00Z</time>
      </trkpt>
      <trkpt lon="9.259441" lat="47.323889">
          <ele>1105.9843</ele>
          <time>1970-03-03T22:00:00Z</time>
      </trkpt>
      <trkpt lon="9.25952" lat="47.324479">
          <ele>1103.1436</ele>
          <time>1970-03-03T22:00:00Z</time>
      </trkpt>
      <trkpt lon="9.259021" lat="47.324709">
          <ele>1100.9104</ele>
          <time>1970-03-03T22:00:00Z</time>
      </trkpt>
      <trkpt lon="9.258436" lat="47.324838">
          <ele>1099.444</ele>
          <time>1970-03-03T22:00:00Z</time>
      </trkpt>
      <trkpt lon="9.25801" lat="47.324672">
          <ele>1097.0193</ele>
          <time>1970-03-03T22:00:00Z</time>
      </trkpt>
      <trkpt lon="9.257093" lat="47.324452">
          <ele>1091.7239</ele>
          <time>1970-03-03T22:00:00Z</time>
      </trkpt>
      <trkpt lon="9.256594" lat="47.32427">
          <ele>1089.0076</ele>
          <time>1970-03-03T22:00:00Z</time>
      </trkpt>
      <trkpt lon="9.255867" lat="47.323937">
          <ele>1085.2793</ele>
          <time>1970-03-03T22:00:00Z</time>
      </trkpt>
      <trkpt lon="9.255021" lat="47.323686">
          <ele>1080.9551</ele>
          <time>1970-03-03T22:00:00Z</time>
      </trkpt>
      <trkpt lon="9.254206" lat="47.323503">
          <ele>1076.9348</ele>
          <time>1970-03-03T22:00:00Z</time>
      </trkpt>
      <trkpt lon="9.253573" lat="47.323203">
          <ele>1074.5593</ele>
          <time>1970-03-03T22:00:00Z</time>
      </trkpt>
      <trkpt lon="9.25283" lat="47.323192">
          <ele>1071.0172</ele>
          <time>1970-03-03T22:00:00Z</time>
      </trkpt>
      <trkpt lon="9.252086" lat="47.323283">
          <ele>1067.3593</ele>
          <time>1970-03-03T22:00:00Z</time>
      </trkpt>
      <trkpt lon="9.251406" lat="47.323503">
          <ele>1063.6959</ele>
          <time>1970-03-03T22:00:00Z</time>
      </trkpt>
      <trkpt lon="9.250687" lat="47.323803">
          <ele>1059.7854</ele>
          <time>1970-03-03T22:00:00Z</time>
      </trkpt>
      <trkpt lon="9.249824" lat="47.323927">
          <ele>1056.8795</ele>
          <time>1970-03-03T22:00:00Z</time>
      </trkpt>
      <trkpt lon="9.248796" lat="47.323761">
          <ele>1056.8687</ele>
          <time>1970-03-03T22:00:00Z</time>
      </trkpt>
      <trkpt lon="9.248132" lat="47.323439">
          <ele>1056.8687</ele>
          <time>1970-03-03T22:00:00Z</time>
      </trkpt>
      <trkpt lon="9.247041" lat="47.323305">
          <ele>1056.8687</ele>
          <time>1970-03-03T22:00:00Z</time>
      </trkpt>
      <trkpt lon="9.246558" lat="47.323321">
          <ele>1056.8687</ele>
          <time>1970-03-03T22:00:00Z</time>
      </trkpt>
      <trkpt lon="9.246147" lat="47.323659">
          <ele>1056.8687</ele>
          <time>1970-03-03T22:00:00Z</time>
      </trkpt>
      <trkpt lon="9.245617" lat="47.324002">
          <ele>1056.8687</ele>
          <time>1970-03-03T22:00:00Z</time>
      </trkpt>
      <trkpt lon="9.245055" lat="47.324254">
          <ele>1056.8687</ele>
          <time>1970-03-03T22:00:00Z</time>
      </trkpt>
      <trkpt lon="9.244581" lat="47.324479">
          <ele>1056.8687</ele>
          <time>1970-03-03T22:00:00Z</time>
      </trkpt>
      <trkpt lon="9.244094" lat="47.32461">
          <ele>967.6967</ele>
          <time>1970-03-03T22:00:00Z</time>
      </trkpt>
      <trkpt lon="9.243319" lat="47.324706">
          <ele>972.3208</ele>
          <time>1970-03-03T22:00:00Z</time>
      </trkpt>
      <trkpt lon="9.2429" lat="47.325058">
          <ele>975</ele>
          <time>1970-03-03T22:00:00Z</time>
      </trkpt>
      <trkpt lon="9.242776" lat="47.325287">
          <ele>970</ele>
          <time>1970-03-03T22:00:00Z</time>
      </trkpt>
      <trkpt lon="9.242366" lat="47.325878">
          <ele>962</ele>
          <time>1970-03-03T22:00:00Z</time>
      </trkpt>
      <trkpt lon="9.242026" lat="47.326035">
          <ele>959</ele>
          <time>1970-03-03T22:00:00Z</time>
      </trkpt>
      <trkpt lon="9.241515" lat="47.326191">
          <ele>955</ele>
          <time>1970-03-03T22:00:00Z</time>
      </trkpt>
      <trkpt lon="9.240856" lat="47.326217">
          <ele>950</ele>
          <time>1970-03-03T22:00:00Z</time>
      </trkpt>
      <trkpt lon="9.239905" lat="47.326113">
          <ele>941</ele>
          <time>1970-03-03T22:00:00Z</time>
      </trkpt>
      <trkpt lon="9.239082" lat="47.326237">
          <ele>936</ele>
          <time>1970-03-03T22:00:00Z</time>
      </trkpt>
      <trkpt lon="9.238474" lat="47.326213">
          <ele>931.99634</ele>
          <time>1970-03-03T22:00:00Z</time>
      </trkpt>
      <trkpt lon="9.237571" lat="47.326123">
          <ele>927.37506</ele>
          <time>1970-03-03T22:00:00Z</time>
      </trkpt>
      <trkpt lon="9.236243" lat="47.325832">
          <ele>923.37946</ele>
          <time>1970-03-03T22:00:00Z</time>
      </trkpt>
      <trkpt lon="9.23522" lat="47.325274">
          <ele>922.55493</ele>
          <time>1970-03-03T22:00:00Z</time>
      </trkpt>
      <trkpt lon="9.233999" lat="47.325184">
          <ele>921.87256</ele>
          <time>1970-03-03T22:00:00Z</time>
      </trkpt>
      <trkpt lon="9.232764" lat="47.325059">
          <ele>921.87256</ele>
          <time>1970-03-03T22:00:00Z</time>
      </trkpt>
      <trkpt lon="9.231932" lat="47.32496">
          <ele>921.87256</ele>
          <time>1970-03-03T22:00:00Z</time>
      </trkpt>
      <trkpt lon="9.231282" lat="47.324713">
          <ele>921.87256</ele>
          <time>1970-03-03T22:00:00Z</time>
      </trkpt>
      <trkpt lon="9.230294" lat="47.324707">
          <ele>921.87256</ele>
          <time>1970-03-03T22:00:00Z</time>
      </trkpt>
      <trkpt lon="9.229272" lat="47.32495">
          <ele>921.87256</ele>
          <time>1970-03-03T22:00:00Z</time>
      </trkpt>
      <trkpt lon="9.228847" lat="47.325427">
          <ele>921.87256</ele>
          <time>1970-03-03T22:00:00Z</time>
      </trkpt>
      <trkpt lon="9.228658" lat="47.325849">
          <ele>921.86884</ele>
          <time>1970-03-03T22:00:00Z</time>
      </trkpt>
      <trkpt lon="9.228804" lat="47.326129">
          <ele>914.88794</ele>
          <time>1970-03-03T22:00:00Z</time>
      </trkpt>
      <trkpt lon="9.22904" lat="47.326543">
          <ele>905.5439</ele>
          <time>1970-03-03T22:00:00Z</time>
      </trkpt>
      <trkpt lon="9.228712" lat="47.326637">
          <ele>898.7825</ele>
          <time>1970-03-03T22:00:00Z</time>
      </trkpt>
      <trkpt lon="9.228345" lat="47.326372">
          <ele>898.7825</ele>
          <time>1970-03-03T22:00:00Z</time>
      </trkpt>
      <trkpt lon="9.227764" lat="47.326227">
          <ele>898.7825</ele>
          <time>1970-03-03T22:00:00Z</time>
      </trkpt>
      <trkpt lon="9.22736" lat="47.326305">
          <ele>897.7957</ele>
          <time>1970-03-03T22:00:00Z</time>
      </trkpt>
      <trkpt lon="9.226919" lat="47.326498">
          <ele>841</ele>
          <time>1970-03-03T22:00:00Z</time>
      </trkpt>
      <trkpt lon="9.226342" lat="47.32604">
          <ele>841</ele>
          <time>1970-03-03T22:00:00Z</time>
      </trkpt>
      <trkpt lon="9.22441" lat="47.325101">
          <ele>835</ele>
          <time>1970-03-03T22:00:00Z</time>
      </trkpt>
      <trkpt lon="9.223986" lat="47.324769">
          <ele>832.8022</ele>
          <time>1970-03-03T22:00:00Z</time>
      </trkpt>
      <trkpt lon="9.223102" lat="47.32444">
          <ele>830.1089</ele>
          <time>1970-03-03T22:00:00Z</time>
      </trkpt>
      <trkpt lon="9.222194" lat="47.324128">
          <ele>830.7644</ele>
          <time>1970-03-03T22:00:00Z</time>
      </trkpt>
      <trkpt lon="9.221067" lat="47.323594">
          <ele>830.826</ele>
          <time>1970-03-03T22:00:00Z</time>
      </trkpt>
      <trkpt lon="9.219739" lat="47.322719">
          <ele>825.7733</ele>
          <time>1970-03-03T22:00:00Z</time>
      </trkpt>
      <trkpt lon="9.218819" lat="47.322268">
          <ele>822.6298</ele>
          <time>1970-03-03T22:00:00Z</time>
      </trkpt>
      <trkpt lon="9.215401" lat="47.320587">
          <ele>821.0085</ele>
          <time>1970-03-03T22:00:00Z</time>
      </trkpt>
      <trkpt lon="9.214324" lat="47.320037">
          <ele>820.9971</ele>
          <time>1970-03-03T22:00:00Z</time>
      </trkpt>
      <trkpt lon="9.212738" lat="47.319292">
          <ele>819.7573</ele>
          <time>1970-03-03T22:00:00Z</time>
      </trkpt>
      <trkpt lon="9.212343" lat="47.319226">
          <ele>820.51514</ele>
          <time>1970-03-03T22:00:00Z</time>
      </trkpt>
      <trkpt lon="9.21199" lat="47.319195">
          <ele>821.2055</ele>
          <time>1970-03-03T22:00:00Z</time>
      </trkpt>
      <trkpt lon="9.211548" lat="47.319114">
          <ele>821.9323</ele>
          <time>1970-03-03T22:00:00Z</time>
      </trkpt>
      <trkpt lon="9.210968" lat="47.318828">
          <ele>823.01276</ele>
          <time>1970-03-03T22:00:00Z</time>
      </trkpt>
      <trkpt lon="9.210141" lat="47.318187">
          <ele>824.7765</ele>
          <time>1970-03-03T22:00:00Z</time>
      </trkpt>
      <trkpt lon="9.209473" lat="47.317649">
          <ele>826.22107</ele>
          <time>1970-03-03T22:00:00Z</time>
      </trkpt>
      <trkpt lon="9.208498" lat="47.317071">
          <ele>826.3146</ele>
          <time>1970-03-03T22:00:00Z</time>
      </trkpt>
      <trkpt lon="9.20704" lat="47.316134">
          <ele>828.3387</ele>
          <time>1970-03-03T22:00:00Z</time>
      </trkpt>
      <trkpt lon="9.206549" lat="47.315066">
          <ele>829.3175</ele>
          <time>1970-03-03T22:00:00Z</time>
      </trkpt>
      <trkpt lon="9.206588" lat="47.314273">
          <ele>828.339</ele>
          <time>1970-03-03T22:00:00Z</time>
      </trkpt>
      <trkpt lon="9.206701" lat="47.313844">
          <ele>827.7956</ele>
          <time>1970-03-03T22:00:00Z</time>
      </trkpt>
      <trkpt lon="9.207191" lat="47.313512">
          <ele>827.16254</ele>
          <time>1970-03-03T22:00:00Z</time>
      </trkpt>
      <trkpt lon="9.207138" lat="47.313252">
          <ele>826.86566</ele>
          <time>1970-03-03T22:00:00Z</time>
      </trkpt>
      <trkpt lon="9.206615" lat="47.3127">
          <ele>826.6507</ele>
          <time>1970-03-03T22:00:00Z</time>
      </trkpt>
      <trkpt lon="9.206668" lat="47.312055">
          <ele>826.6507</ele>
          <time>1970-03-03T22:00:00Z</time>
      </trkpt>
      <trkpt lon="9.206118" lat="47.311697">
          <ele>825.68585</ele>
          <time>1970-03-03T22:00:00Z</time>
      </trkpt>
      <trkpt lon="9.205425" lat="47.311513">
          <ele>824.3573</ele>
          <time>1970-03-03T22:00:00Z</time>
      </trkpt>
      <trkpt lon="9.204567" lat="47.311171">
          <ele>822.78864</ele>
          <time>1970-03-03T22:00:00Z</time>
      </trkpt>
      <trkpt lon="9.203679" lat="47.310695">
          <ele>821.2679</ele>
          <time>1970-03-03T22:00:00Z</time>
      </trkpt>
      <trkpt lon="9.202926" lat="47.310261">
          <ele>820.04004</ele>
          <time>1970-03-03T22:00:00Z</time>
      </trkpt>
      <trkpt lon="9.20206" lat="47.309648">
          <ele>818.75824</ele>
          <time>1970-03-03T22:00:00Z</time>
      </trkpt>
      <trkpt lon="9.20136" lat="47.309234">
          <ele>817.7204</ele>
          <time>1970-03-03T22:00:00Z</time>
      </trkpt>
      <trkpt lon="9.200208" lat="47.308625">
          <ele>816.023</ele>
          <time>1970-03-03T22:00:00Z</time>
      </trkpt>
      <trkpt lon="9.199448" lat="47.307946">
          <ele>815.2462</ele>
          <time>1970-03-03T22:00:00Z</time>
      </trkpt>
      <trkpt lon="9.198637" lat="47.307553">
          <ele>814.1762</ele>
          <time>1970-03-03T22:00:00Z</time>
      </trkpt>
      <trkpt lon="9.197728" lat="47.306991">
          <ele>813.1839</ele>
          <time>1970-03-03T22:00:00Z</time>
      </trkpt>
      <trkpt lon="9.197029" lat="47.306417">
          <ele>812.6748</ele>
          <time>1970-03-03T22:00:00Z</time>
      </trkpt>
      <trkpt lon="9.196315" lat="47.30612">
          <ele>811.87274</ele>
          <time>1970-03-03T22:00:00Z</time>
      </trkpt>
      <trkpt lon="9.195632" lat="47.305745">
          <ele>811.2799</ele>
          <time>1970-03-03T22:00:00Z</time>
      </trkpt>
      <trkpt lon="9.195096" lat="47.30548">
          <ele>810.82336</ele>
          <time>1970-03-03T22:00:00Z</time>
      </trkpt>
      <trkpt lon="9.195331" lat="47.306351">
          <ele>809.42926</ele>
          <time>1970-03-03T22:00:00Z</time>
      </trkpt>
      <trkpt lon="9.195509" lat="47.306874">
          <ele>809.42926</ele>
          <time>1970-03-03T22:00:00Z</time>
      </trkpt>
      <trkpt lon="9.195525" lat="47.307271">
          <ele>809.42926</ele>
          <time>1970-03-03T22:00:00Z</time>
      </trkpt>
      <trkpt lon="9.195493" lat="47.307513">
          <ele>809.05554</ele>
          <time>1970-03-03T22:00:00Z</time>
      </trkpt>
      <trkpt lon="9.194761" lat="47.307965">
          <ele>807.2424</ele>
          <time>1970-03-03T22:00:00Z</time>
      </trkpt>
      <trkpt lon="9.1942" lat="47.308411">
          <ele>805.7225</ele>
          <time>1970-03-03T22:00:00Z</time>
      </trkpt>
      <trkpt lon="9.193875" lat="47.308598">
          <ele>804.93604</ele>
          <time>1970-03-03T22:00:00Z</time>
      </trkpt>
      <trkpt lon="9.193273" lat="47.308642">
          <ele>803.8808</ele>
          <time>1970-03-03T22:00:00Z</time>
      </trkpt>
      <trkpt lon="9.192737" lat="47.308625">
          <ele>803.0343</ele>
          <time>1970-03-03T22:00:00Z</time>
      </trkpt>
      <trkpt lon="9.192079" lat="47.308642">
          <ele>801.9672</ele>
          <time>1970-03-03T22:00:00Z</time>
      </trkpt>
      <trkpt lon="9.192403" lat="47.309016">
          <ele>801.28625</ele>
          <time>1970-03-03T22:00:00Z</time>
      </trkpt>
      <trkpt lon="9.192549" lat="47.309342">
          <ele>800.9598</ele>
          <time>1970-03-03T22:00:00Z</time>
      </trkpt>
      <trkpt lon="9.192338" lat="47.309821">
          <ele>799.9952</ele>
          <time>1970-03-03T22:00:00Z</time>
      </trkpt>
      <trkpt lon="9.191696" lat="47.310102">
          <ele>798.60205</ele>
          <time>1970-03-03T22:00:00Z</time>
      </trkpt>
      <trkpt lon="9.191256" lat="47.310397">
          <ele>797.61896</ele>
          <time>1970-03-03T22:00:00Z</time>
      </trkpt>
      <trkpt lon="9.190714" lat="47.31109">
          <ele>795.85175</ele>
          <time>1970-03-03T22:00:00Z</time>
      </trkpt>
      <trkpt lon="9.189994" lat="47.311358">
          <ele>794.32513</ele>
          <time>1970-03-03T22:00:00Z</time>
      </trkpt>
      <trkpt lon="9.189568" lat="47.311431">
          <ele>793.5562</ele>
          <time>1970-03-03T22:00:00Z</time>
      </trkpt>
      <trkpt lon="9.188824" lat="47.311652">
          <ele>792.10455</ele>
          <time>1970-03-03T22:00:00Z</time>
      </trkpt>
      <trkpt lon="9.188213" lat="47.311484">
          <ele>791.43445</ele>
          <time>1970-03-03T22:00:00Z</time>
      </trkpt>
      <trkpt lon="9.187523" lat="47.311793">
          <ele>790.00635</ele>
          <time>1970-03-03T22:00:00Z</time>
      </trkpt>
      <trkpt lon="9.18685" lat="47.312077">
          <ele>788.66675</ele>
          <time>1970-03-03T22:00:00Z</time>
      </trkpt>
      <trkpt lon="9.1864" lat="47.312298">
          <ele>787.74396</ele>
          <time>1970-03-03T22:00:00Z</time>
      </trkpt>
      <trkpt lon="9.186106" lat="47.312429">
          <ele>787.1744</ele>
          <time>1970-03-03T22:00:00Z</time>
      </trkpt>
      <trkpt lon="9.185595" lat="47.31276">
          <ele>786.0245</ele>
          <time>1970-03-03T22:00:00Z</time>
      </trkpt>
      <trkpt lon="9.18527" lat="47.31297">
          <ele>785.3084</ele>
          <time>1970-03-03T22:00:00Z</time>
      </trkpt>
      <trkpt lon="9.185068" lat="47.313237">
          <ele>784.6276</ele>
          <time>1970-03-03T22:00:00Z</time>
      </trkpt>
      <trkpt lon="9.184457" lat="47.313579">
          <ele>783.4031</ele>
          <time>1970-03-03T22:00:00Z</time>
      </trkpt>
      <trkpt lon="9.183907" lat="47.313663">
          <ele>782.7797</ele>
          <time>1970-03-03T22:00:00Z</time>
      </trkpt>
      <trkpt lon="9.183427" lat="47.313505">
          <ele>782.7797</ele>
          <time>1970-03-03T22:00:00Z</time>
      </trkpt>
      <trkpt lon="9.183086" lat="47.313379">
          <ele>782.7797</ele>
          <time>1970-03-03T22:00:00Z</time>
      </trkpt>
      <trkpt lon="9.182784" lat="47.313484">
          <ele>782.5071</ele>
          <time>1970-03-03T22:00:00Z</time>
      </trkpt>
      <trkpt lon="9.182474" lat="47.313694">
          <ele>782.06775</ele>
          <time>1970-03-03T22:00:00Z</time>
      </trkpt>
      <trkpt lon="9.182211" lat="47.313873">
          <ele>781.7344</ele>
          <time>1970-03-03T22:00:00Z</time>
      </trkpt>
      <trkpt lon="9.182064" lat="47.314172">
          <ele>781.18164</ele>
          <time>1970-03-03T22:00:00Z</time>
      </trkpt>
      <trkpt lon="9.181874" lat="47.314088">
          <ele>781.1394</ele>
          <time>1970-03-03T22:00:00Z</time>
      </trkpt>
      <trkpt lon="9.181568" lat="47.314324">
          <ele>781.04205</ele>
          <time>1970-03-03T22:00:00Z</time>
      </trkpt>
      <trkpt lon="9.180775" lat="47.314579">
          <ele>781.04205</ele>
          <time>1970-03-03T22:00:00Z</time>
      </trkpt>
      <trkpt lon="9.180035" lat="47.315174">
          <ele>781.04205</ele>
          <time>1970-03-03T22:00:00Z</time>
      </trkpt>
      <trkpt lon="9.179299" lat="47.315647">
          <ele>781.04205</ele>
          <time>1970-03-03T22:00:00Z</time>
      </trkpt>
      <trkpt lon="9.178833" lat="47.317778">
          <ele>736.9026</ele>
          <time>1970-03-03T22:00:00Z</time>
      </trkpt>
      <trkpt lon="9.178795" lat="47.317928">
          <ele>733.8556</ele>
          <time>1970-03-03T22:00:00Z</time>
      </trkpt>
      <trkpt lon="9.177806" lat="47.317685">
          <ele>727</ele>
          <time>1970-03-03T22:00:00Z</time>
      </trkpt>
      <trkpt lon="9.177696" lat="47.317928">
          <ele>727</ele>
          <time>1970-03-03T22:00:00Z</time>
      </trkpt>
      <trkpt lon="9.177612" lat="47.31831">
          <ele>727</ele>
          <time>1970-03-03T22:00:00Z</time>
      </trkpt>
      <trkpt lon="9.177489" lat="47.318549">
          <ele>727</ele>
          <time>1970-03-03T22:00:00Z</time>
      </trkpt>
      <trkpt lon="9.176867" lat="47.318206">
          <ele>723.87994</ele>
          <time>1970-03-03T22:00:00Z</time>
      </trkpt>
      <trkpt lon="9.176105" lat="47.318059">
          <ele>720.4636</ele>
          <time>1970-03-03T22:00:00Z</time>
      </trkpt>
      <trkpt lon="9.175901" lat="47.318169">
          <ele>718.7003</ele>
          <time>1970-03-03T22:00:00Z</time>
      </trkpt>
      <trkpt lon="9.175641" lat="47.318309">
          <ele>716.7358</ele>
          <time>1970-03-03T22:00:00Z</time>
      </trkpt>
      <trkpt lon="9.175272" lat="47.318079">
          <ele>712.2272</ele>
          <time>1970-03-03T22:00:00Z</time>
      </trkpt>
      <trkpt lon="9.17506" lat="47.317859">
          <ele>709.126</ele>
          <time>1970-03-03T22:00:00Z</time>
      </trkpt>
      <trkpt lon="9.174616" lat="47.317633">
          <ele>704</ele>
          <time>1970-03-03T22:00:00Z</time>
      </trkpt>
      <trkpt lon="9.17388" lat="47.317667">
          <ele>701</ele>
          <time>1970-03-03T22:00:00Z</time>
      </trkpt>
   </trkseg>
</trk>
</gpx>
